Newark Heath, OH

6:37 AM EDT on June 23, 2017 (GMT -0400)
Newark Heath

Weather History for KVTA - October, 2012

Change the Weather History Date:

Saturday, October 27, 2012

  Actual Average Record
Temperature  
Mean Temperature 50 °F -  
Max Temperature 52 °F 62 °F 80 °F (1963)
Min Temperature 48 °F 37 °F 20 °F (1949)
Degree Days  
Heating Degree Days 16    
Moisture  
Dew Point 44 °F    
Average Humidity 84    
Maximum Humidity 93    
Minimum Humidity 74    
Precipitation  
Precipitation 0.70 in - - ()
Sea Level Pressure  
Sea Level Pressure 30.05 in    
Wind  
Wind Speed 7 mph (North)    
Max Wind Speed 15 mph    
Max Gust Speed 21 mph    
Visibility 7 miles    
Events Rain    
Averages and records for this station are not official NWS values.
T = Trace of Precipitation, MM = Missing Value Source: NWS Daily Summary

Daily Weather History Graph

Daily Weather History Graph

Search for Another Location

Airport or City:

Trip Planner

Search our weather history database for the weather conditions in past years. The results will help you decide how hot, cold, wet, or windy it might be!

Date:

Astronomy

Oct. 27, 2012 Rise Set
Actual Time 7:53 AM EDT 6:32 PM EDT
Civil Twilight 7:25 AM EDT 7:00 PM EDT
Nautical Twilight 6:54 AM EDT 7:32 PM EDT
Astronomical Twilight 6:22 AM EDT 8:03 PM EDT
Moon 5:18 PM EDT (10/27) 5:47 AM EDT (10/27)
Length of Visible Light 11h 34m
Length of Day
10h 39m
Waxing Gibbous, 96% of the Moon is Illuminated
Oct 27
Waxing Gibbous
Oct 29
Full
Nov 6
Last Quarter
Nov 13
New
Nov 20
First Quarter

Hourly Weather History & Observations

Time (EDT) Temp. Dew Point Humidity Pressure Visibility Wind Dir Wind Speed Gust Speed Precip Events Conditions
12:25 AM 50.0 °F 46.4 °F 87% 30.06 in 7.0 mi North 5.8 mph - 0.03 in Rain Light Rain
12:33 AM 50.0 °F 46.4 °F 87% 30.05 in 7.0 mi NNE 6.9 mph - 0.03 in Rain Light Rain
12:43 AM 50.0 °F 46.4 °F 87% 30.05 in 4.0 mi North 4.6 mph - 0.06 in Rain Rain
12:54 AM 50.0 °F 46.9 °F 89% 30.05 in 4.0 mi NNE 4.6 mph - 0.09 in Rain Rain
1:16 AM 50.0 °F 46.4 °F 87% 30.06 in 4.0 mi NNW 5.8 mph - 0.08 in Rain Rain
1:22 AM 50.0 °F 46.4 °F 87% 30.06 in 3.0 mi North 5.8 mph - 0.12 in Rain Rain
1:43 AM 48.2 °F 46.4 °F 93% 30.04 in 5.0 mi North 5.8 mph - 0.20 in Rain Light Rain
1:54 AM 50.0 °F 46.9 °F 89% 30.05 in 5.0 mi North 5.8 mph - 0.23 in Rain Rain
2:13 AM 50.0 °F 46.4 °F 87% 30.05 in 4.0 mi North 3.5 mph - 0.04 in Rain Light Rain
2:22 AM 48.2 °F 46.4 °F 93% 30.05 in 5.0 mi North 5.8 mph - 0.06 in Rain Rain
2:54 AM 48.9 °F 46.0 °F 90% 30.04 in 4.0 mi North 8.1 mph - 0.12 in Rain Rain
3:09 AM 48.2 °F 46.4 °F 93% 30.03 in 6.0 mi Variable 5.8 mph - 0.02 in Rain Light Rain
3:41 AM 48.2 °F 46.4 °F 93% 30.02 in 6.0 mi North 8.1 mph - 0.06 in Rain Rain
3:54 AM 48.9 °F 46.0 °F 90% 30.02 in 5.0 mi North 8.1 mph 17.3 mph 0.08 in Rain Rain
4:23 AM 48.2 °F 44.6 °F 87% 30.01 in 8.0 mi NNE 8.1 mph 16.1 mph 0.05 in Rain Light Rain
4:54 AM 48.0 °F 45.0 °F 89% 30.01 in 9.0 mi NNE 8.1 mph - 0.07 in Rain Light Rain
5:51 AM 48.2 °F 44.6 °F 87% 30.01 in 6.0 mi North 5.8 mph - 0.05 in Rain Light Rain
5:54 AM 48.0 °F 45.0 °F 89% 30.02 in 6.0 mi North 6.9 mph - 0.05 in Rain Light Rain
6:26 AM 48.2 °F 44.6 °F 87% 30.01 in 4.0 mi North 5.8 mph - 0.04 in Rain Light Rain
6:54 AM 48.0 °F 45.0 °F 89% 30.01 in 8.0 mi North 5.8 mph - 0.05 in Rain Light Rain
7:54 AM 48.0 °F 44.1 °F 86% 30.03 in 10.0 mi North 8.1 mph - 0.00 in   Overcast
8:15 AM 48.2 °F 44.6 °F 87% 30.04 in 10.0 mi North 9.2 mph - 0.00 in Rain Light Rain
8:30 AM 48.2 °F 42.8 °F 82% 30.05 in 10.0 mi Variable 6.9 mph 17.3 mph 0.00 in   Overcast
8:54 AM 48.0 °F 43.0 °F 83% 30.06 in 10.0 mi North 11.5 mph 17.3 mph 0.00 in   Overcast
10:43 AM 48.2 °F 44.6 °F 87% 30.07 in 4.0 mi North 6.9 mph - 0.00 in Rain Light Rain
10:54 AM 48.0 °F 44.1 °F 86% 30.09 in 3.0 mi North 8.1 mph - 0.01 in Rain Light Rain
11:20 AM 48.2 °F 44.6 °F 87% 30.08 in 4.0 mi North 8.1 mph - 0.00 in Rain Light Rain
11:30 AM 48.2 °F 44.6 °F 87% 30.08 in 6.0 mi North 6.9 mph - 0.00 in   Overcast
11:54 AM 48.0 °F 44.1 °F 86% 30.09 in 7.0 mi North 13.8 mph - 0.00 in   Overcast
12:54 PM 48.9 °F 43.0 °F 80% 30.06 in 10.0 mi NNE 10.4 mph 16.1 mph N/A   Overcast
1:54 PM 50.0 °F 44.1 °F 80% 30.05 in 10.0 mi North 11.5 mph 18.4 mph N/A   Overcast
2:54 PM 50.0 °F 44.1 °F 80% 30.04 in 10.0 mi NNW 15.0 mph 19.6 mph N/A   Overcast
3:01 PM 50.0 °F 42.8 °F 76% 30.04 in 10.0 mi NNW 11.5 mph 20.7 mph N/A   Overcast
3:41 PM 50.0 °F 42.8 °F 76% 30.04 in 10.0 mi North 10.4 mph - N/A   Overcast
3:54 PM 50.0 °F 43.0 °F 77% 30.05 in 10.0 mi North 10.4 mph - N/A   Overcast
4:54 PM 51.1 °F 43.0 °F 74% 30.05 in 10.0 mi North 6.9 mph - N/A   Overcast
5:54 PM 51.1 °F 43.0 °F 74% 30.06 in 10.0 mi North 8.1 mph 17.3 mph N/A   Overcast
6:54 PM 50.0 °F 42.1 °F 74% 30.07 in 10.0 mi North 9.2 mph - N/A   Overcast
7:54 PM 50.0 °F 42.1 °F 74% 30.08 in 10.0 mi North 9.2 mph - N/A   Overcast
8:54 PM 50.0 °F 42.1 °F 74% 30.08 in 10.0 mi North 9.2 mph - N/A   Overcast
9:23 PM 48.2 °F 41.0 °F 76% 30.07 in 10.0 mi North 8.1 mph - N/A   Overcast
9:54 PM 48.9 °F 41.0 °F 74% 30.08 in 10.0 mi NNE 6.9 mph 17.3 mph N/A   Overcast
10:08 PM 48.2 °F 42.8 °F 82% 30.08 in 10.0 mi North 8.1 mph - N/A   Overcast
10:54 PM 48.9 °F 43.0 °F 80% 30.08 in 10.0 mi North 8.1 mph - N/A   Overcast
11:54 PM 48.0 °F 43.0 °F 83% 30.08 in 8.0 mi North 8.1 mph - N/A   Overcast